{"data":{"norad_id":67379,"epoch":"2026-05-25T04:00:03.998880Z","epoch_age_seconds":63839,"freshness":"FRESH","line1":"1 67379U 26004S   26145.16671295 -.00054320  00000+0 -61789-2 0  9997","line2":"2 67379  97.8006 144.1219 0002188 204.7807  68.2154 14.86544374  5965","mean_motion":14.86544374,"eccentricity":0.0002188,"inclination_deg":97.8006,"raan_deg":144.1219,"arg_perigee_deg":204.7807,"mean_anomaly_deg":68.2154,"bstar":-0.0061789,"rev_number":596,"period_min":96.868954952568,"perigee_km":607.21381959631,"apogee_km":610.27127808688,"semimajor_km":6986.8795488416,"source":"CELESTRAK","updated_at":"2026-05-25T13:38:06.931114Z"}}